RH
50 52 54 56 50 43 40 39 39 37 39 37 39 39 37 38 47 47 44 42 38 44 55 52 46 50 51 51 48 49 45 42 38 37 30 27 24 22 18 18 20 20 13
54 57 61 69 64 51 47 42 41 40 43 47 43 43 42 44 44 46 46 52 51 60 58 65 71 67 58 61 62 58 55 51 51 47 34 31 26 22 18 15 16 22 22
59 56 72 78 74 62 56 48 42 43 42 48 55 53 52 55 56 54 54 56 56 55 61 66 64 64 68 64 57 55 60 60 49 39 35 32 24 20 20 16 14 19 27
79 73 75 88 83 72 65 59 52 47 45 48 53 55 57 60 64 61 63 64 62 58 55 56 62 70 70 68 67 76 67 44 36 36 33 24 24 22 21 16 12 14 22
90 85 84 99 100 95 93 84 66 61 56 53 51 54 57 64 66 65 66 71 63 57 62 64 66 64 56 87 84 71 55 47 46 40 30 23 21 14 13 14 11 10 13
87 90 96 100 100 100 99 97 91 85 72 65 59 57 60 62 63 62 56 57 58 53 54 53 59 57 89 87 75 67 53 49 49 40 30 21 20 15 11 9 9 10 10
72 80 89 100 100 100 100 93 97 90 81 72 65 68 73 69 70 63 61 60 54 51 51 61 71 85 73 84 90 66 68 61 50 40 25 19 18 11 10 11 10 10 10
69 72 74 95 100 100 100 100 100 97 98 83 74 78 75 75 80 81 78 64 54 56 64 85 74 70 73 96 96 86 71 55 44 28 25 20 14 10 10 10 10 10 12
83 74 68 86 100 100 100 100 100 100 100 94 86 83 69 86 86 92 84 63 60 69 72 66 67 90 100 100 88 78 58 48 34 25 25 23 10 10 11 11 10 11 12
80 74 77 98 100 100 100 100 98 92 99 96 92 91 97 100 93 98 89 70 66 68 66 63 91 100 98 90 83 64 52 41 31 30 24 16 10 11 11 11 10 8 9
76 63 75 80 94 95 95 100 100 100 100 100 86 99 93 98 95 86 85 79 63 63 70 94 92 92 89 86 70 59 51 37 38 35 22 14 12 11 11 10 10 10 10
42 44 50 55 78 74 97 100 100 100 100 100 95 95 95 96 88 89 88 85 78 73 82 89 81 91 89 83 66 64 48 41 46 30 22 12 11 12 11 11 11 11 12
47 42 42 46 47 71 100 100 100 100 100 100 100 96 97 95 95 86 80 89 88 84 88 81 97 90 85 76 71 64 54 51 38 20 17 11 10 11 12 12 12 11 11
51 50 47 41 37 70 100 100 96 98 100 100 98 90 99 95 100 97 93 99 98 95 95 99 96 95 85 76 71 64 55 43 26 16 12 11 11 12 12 14 13 13 12
62 60 51 43 37 58 86 92 96 96 100 100 98 96 98 98 100 100 100 100 100 94 90 100 93 88 79 76 75 58 42 28 17 15 13 13 12 13 14 15 15 16 15
73 70 60 49 40 49 71 79 99 98 99 98 100 92 86 100 99 99 96 100 100 100 100 96 96 85 84 74 58 46 32 19 18 17 16 16 16 16 17 17 19 17 17
75 80 66 56 45 52 66 76 100 94 86 93 97 89 100 93 93 88 91 100 100 100 100 100 97 93 89 67 54 35 20 20 18 20 20 20 21 20 20 20 22 23 24
73 74 69 64 54 68 75 65 80 96 84 71 87 96 98 93 94 87 94 100 100 100 100 100 98 84 81 67 60 30 22 21 20 22 24 23 23 25 23 22 24 25 29
67 83 70 73 67 83 92 90 75 81 81 70 78 97 90 90 94 88 98 100 100 100 100 97 94 92 72 62 57 27 22 22 22 23 26 24 26 27 27 25 24 25 29
38 46 62 75 81 89 98 100 83 84 85 77 77 84 87 99 96 97 100 100 100 100 100 100 100 88 71 59 39 23 22 24 24 22 25 26 26 29 29 29 26 25 31
29 28 36 55 74 87 95 100 100 94 86 90 90 100 100 100 95 100 100 100 100 100 100 100 100 82 73 48 33 24 24 26 24 24 23 26 28 28 29 32 30 26 28
29 24 24 35 54 72 79 100 100 100 100 100 100 98 97 100 100 100 100 100 100 100 96 97 97 81 60 36 25 24 26 27 26 27 23 25 26 26 29 30 34 32 32
27 23 22 24 37 55 70 79 95 100 100 100 100 100 100 100 100 100 100 100 94 81 100 100 92 53 32 32 26 27 32 30 28 27 25 25 25 25 27 30 36 43 40
25 23 23 24 30 38 54 73 96 100 100 100 100 94 93 99 100 100 100 94 90 100 99 86 55 25 30 27 30 34 34 30 27 30 23 22 25 30 31 32 45 53 51
23 22 23 26 28 35 47 64 98 100 100 100 100 100 100 100 98 94 97 100 100 90 84 44 26 29 28 30 35 34 33 31 31 32 26 21 29 38 38 41 46 54 54
23 23 26 27 28 31 38 62 90 100 100 100 100 100 100 93 87 90 95 94 90 73 33 29 29 30 30 32 33 37 35 32 28 36 34 27 33 42 45 57 60 53 52
Wind_Speed
28 26 24 23 23 24 24 25 25 24 24 23 21 20 21 21 21 21 22 25 25 26 26 25 27 27 30 31 33 35 34 34 35 37 39 40 45 41 36 35 37 38 38
27 26 26 25 25 25 26 28 28 27 26 25 23 23 22 22 23 24 25 24 25 26 28 28 27 30 32 35 36 37 36 37 37 40 42 44 54 42 41 38 38 39 41
29 28 28 27 28 28 28 30 30 30 29 27 25 25 25 25 24 26 25 26 27 28 29 31 33 33 36 37 39 37 36 38 41 40 45 48 54 47 46 39 39 41 42
31 29 29 29 30 30 31 32 33 32 32 30 28 27 28 29 28 28 27 27 28 29 32 32 31 32 35 38 37 39 38 41 43 44 50 57 52 50 45 41 39 40 43
31 30 30 30 30 32 32 34 33 34 34 33 31 30 28 30 30 31 31 31 30 30 31 31 32 33 34 37 38 39 44 44 47 50 55 61 57 47 42 40 40 41 42
33 32 30 31 31 32 34 35 34 34 34 34 33 31 30 30 30 30 32 33 33 32 31 33 33 34 37 38 40 44 46 49 52 55 61 60 54 51 47 44 44 43 44
37 35 33 32 33 34 34 35 34 34 33 34 33 33 32 31 30 30 33 35 33 31 32 30 33 35 37 39 43 47 50 54 57 61 66 60 55 53 51 50 50 48 48
40 37 34 33 34 35 35 36 35 34 32 35 33 34 34 33 34 34 37 36 33 33 30 33 36 38 40 44 47 50 53 56 61 66 65 60 57 59 55 53 53 53 52
43 41 36 35 38 38 38 37 37 36 34 35 35 35 34 34 35 36 38 36 33 32 34 37 37 40 43 46 50 53 55 60 65 66 67 60 60 55 51 53 54 53 53
46 44 40 40 41 40 39 39 39 38 36 38 37 36 36 37 37 37 39 37 34 36 38 39 39 42 47 49 52 56 59 64 69 68 68 60 64 56 57 58 56 56 55
47 45 45 43 42 42 41 39 39 38 37 40 38 38 38 37 39 40 39 39 40 41 41 39 43 47 51 53 57 61 62 69 69 70 68 62 64 59 58 56 53 53 55
47 47 45 45 43 43 41 39 40 39 39 42 40 40 41 40 39 40 40 40 41 42 41 44 48 51 54 57 60 62 66 70 71 74 66 60 63 58 59 53 48 48 49
51 48 47 46 46 43 42 42 42 42 42 41 41 43 43 42 41 42 42 42 41 43 45 49 51 53 57 56 59 63 67 71 77 74 64 62 63 58 60 51 45 44 43
52 51 50 48 46 44 43 45 46 45 44 43 44 46 43 42 40 41 42 41 44 46 48 50 53 55 56 57 63 67 71 75 77 69 65 67 63 55 56 50 45 44 44
55 53 52 50 48 47 47 47 47 47 46 45 47 47 44 42 39 41 42 43 48 51 52 53 55 58 57 61 65 69 74 75 71 70 69 69 65 58 54 45 42 40 41
56 56 54 53 50 49 48 47 46 47 46 46 45 45 43 40 43 44 45 46 49 52 54 56 56 57 58 63 67 71 75 69 71 71 71 69 65 59 55 45 35 35 33
57 58 56 54 52 50 50 49 46 46 45 45 45 44 40 44 46 47 46 49 51 54 55 57 60 60 60 66 69 73 68 70 70 69 70 69 63 59 56 50 38 36 33
57 58 57 55 53 51 51 52 51 50 48 48 45 45 45 47 48 48 45 52 54 55 57 61 61 64 64 66 72 70 70 72 70 69 69 70 65 61 58 54 43 34 33
56 58 55 55 53 52 51 52 52 52 52 51 49 50 52 49 48 47 48 54 57 58 61 65 66 64 68 71 75 71 71 70 70 71 70 69 68 65 61 55 50 38 34
55 56 56 55 55 54 52 52 53 52 51 53 48 49 48 50 50 49 52 57 60 61 65 64 65 70 73 75 73 73 74 75 74 72 72 71 69 67 64 61 54 46 40
55 53 52 54 55 55 54 54 53 53 52 50 50 49 51 52 50 50 57 62 62 64 66 66 71 76 77 74 73 76 76 78 79 77 76 75 72 68 67 65 59 52 45
55 50 49 50 52 54 54 53 54 53 53 51 49 51 53 50 49 56 63 63 63 68 71 76 76 75 77 75 77 78 81 82 82 82 79 78 76 72 70 68 61 54 50
56 52 49 49 48 50 52 52 54 56 57 56 51 47 50 52 55 61 63 65 71 73 73 76 77 78 77 78 81 83 85 86 86 85 83 82 80 77 72 68 59 55 51
56 53 51 50 49 50 51 52 54 55 58 62 64 62 57 59 61 66 70 72 73 73 79 80 77 79 81 83 86 89 90 89 87 87 84 83 85 78 73 63 53 54 54
57 55 51 51 51 51 51 52 53 56 57 59 62 64 65 67 72 73 75 73 77 80 82 79 80 82 84 88 91 93 93 93 90 85 85 81 72 65 61 56 52 51 53
61 58 54 53 51 52 52 53 54 59 61 61 63 66 72 76 78 79 80 82 84 82 79 81 84 87 90 92 95 96 97 94 85 77 74 65 54 49 51 51 51 51 52
Wind_Direction
246 250 251 254 263 268 272 275 276 277 279 279 280 282 288 294 295 295 293 297 296 295 291 293 295 302 307 311 313 315 318 319 316 320 321 322 324 314 304 290 283 278 274
241 246 247 252 258 265 270 273 276 275 275 276 279 284 287 290 293 297 300 302 303 297 293 292 296 299 303 308 308 310 311 312 313 315 316 316 321 312 306 296 283 276 273
239 243 244 249 255 260 265 270 273 274 277 277 279 282 286 290 294 294 298 300 301 298 297 295 294 299 302 302 303 308 308 310 312 311 313 314 318 313 307 297 288 276 271
239 243 244 247 253 258 262 267 272 275 277 280 278 282 286 289 294 294 296 301 302 300 298 294 296 298 298 297 302 306 305 310 312 310 312 315 315 312 306 297 291 282 273
239 243 245 250 255 261 266 268 270 274 278 280 281 281 285 288 291 293 296 296 302 300 298 296 294 294 295 298 303 305 306 310 312 310 313 316 316 313 305 299 294 290 279
237 242 244 249 253 261 266 267 269 274 277 279 282 283 284 288 290 294 295 297 299 300 300 298 298 298 301 301 303 305 306 309 308 310 313 315 316 311 306 298 292 287 283
237 239 240 246 253 260 265 267 270 271 274 277 282 284 289 293 294 298 303 301 301 301 301 299 300 300 301 301 302 305 308 309 310 312 315 316 314 308 300 297 292 288 282
242 242 241 247 254 261 265 268 271 270 270 274 279 281 286 292 293 296 302 304 303 303 299 302 300 301 303 302 303 306 309 312 310 313 315 314 313 307 298 293 287 284 281
242 245 243 247 254 257 260 262 267 267 266 273 274 279 285 290 292 296 302 304 303 299 297 301 302 306 301 303 306 310 312 310 312 315 317 314 313 306 298 293 281 277 275
241 244 243 246 249 253 258 258 263 268 268 271 277 279 285 287 289 294 302 303 299 296 299 305 305 301 304 304 308 309 310 311 315 315 318 314 316 308 305 300 289 279 273
239 242 243 245 246 251 256 258 263 268 269 270 274 280 283 286 290 295 299 298 298 298 300 301 299 300 303 307 308 310 314 314 314 316 317 314 316 310 309 303 292 284 277
238 240 241 244 247 251 257 258 260 265 265 269 274 277 282 285 290 295 295 295 295 297 299 298 301 302 305 307 310 312 314 314 314 316 314 315 318 313 315 309 296 287 277
236 240 242 244 248 251 259 261 261 264 266 271 276 278 282 288 292 294 293 294 294 296 298 300 302 304 307 309 314 315 314 314 315 315 314 318 323 319 321 316 305 300 292
238 239 242 245 247 250 255 259 261 264 268 272 274 277 285 290 292 288 291 295 297 297 298 300 301 306 309 311 314 315 316 315 315 316 318 319 324 322 326 319 311 306 300
237 240 243 247 249 249 253 257 261 265 268 272 274 279 284 288 285 284 290 295 296 297 297 299 302 307 309 313 313 315 315 315 316 319 320 321 325 325 327 323 312 304 297
238 242 244 246 248 250 254 257 263 265 268 272 277 279 285 282 279 282 290 291 293 294 296 298 305 306 309 312 313 314 313 315 317 321 321 323 326 326 328 325 312 308 301
237 240 243 246 247 250 254 255 262 267 271 275 280 283 279 279 280 282 287 287 291 291 295 300 304 306 310 311 312 314 313 314 318 320 322 323 326 325 326 326 310 315 311
237 239 242 245 247 251 255 258 259 265 272 276 277 276 277 281 279 284 286 285 285 288 297 298 304 305 308 311 311 309 312 314 317 319 321 321 321 322 321 322 312 304 313
238 240 242 245 248 251 255 262 263 266 270 275 275 273 279 279 281 285 287 281 285 290 296 300 300 304 308 309 308 308 310 312 314 318 317 318 316 315 316 315 314 294 297
237 241 243 246 249 252 255 262 266 269 272 273 273 277 276 280 282 287 282 282 284 293 295 297 301 304 305 307 305 307 309 311 313 315 314 313 314 311 311 311 307 297 288
238 241 246 248 250 253 256 260 267 272 274 277 275 278 279 281 285 285 278 284 291 292 296 298 301 301 303 303 303 306 308 309 312 312 312 311 310 308 307 306 302 297 280
238 243 247 251 253 256 258 260 265 268 271 274 278 279 282 286 285 277 280 285 290 293 296 297 297 301 301 301 301 304 305 308 308 310 309 307 307 305 302 301 297 289 280
238 242 249 253 256 257 260 260 262 263 266 269 270 274 281 282 281 277 281 284 287 291 292 293 297 298 299 300 302 302 305 305 307 309 308 306 304 301 299 298 291 281 277
239 245 249 254 256 258 259 260 261 263 268 268 268 273 281 280 277 276 280 283 288 290 291 293 294 297 299 300 300 302 303 305 307 308 307 305 300 298 296 291 280 274 272
240 244 248 252 256 259 261 262 263 264 268 271 273 272 271 274 275 277 281 285 286 288 291 293 295 297 298 299 300 301 303 306 307 306 306 306 301 296 291 287 279 270 268
240 243 247 252 256 260 263 263 265 266 268 270 271 272 273 274 277 279 282 284 284 287 290 293 294 296 297 299 300 302 303 304 305 306 308 305 301 297 291 286 280 274 270